Location: Gleizolles
(44.4833°N, 6.7667°E)
Time: 10:34:03
(UTC+00:00)

A-11 Canister half - Pass Details

Date: 21 June 2024
Orbit: 1515 x 1685 km, 47.2° (Epoch: 13 July)

Event Time Altitude Azimuth Distance (km) Brightness Sun altitude
Rises 23:58:24 0° 294° (WNW) 4,853 11.9 -21.9°
Reaches altitude 10° 00:01:41 10° 290° (WNW) 3,841 11.2 -21.8°
Maximum altitude 00:10:53 50° 219° (SW) 1,938 9.1 -21.6°
Enters shadow 00:16:11 26° 159° (SSE) 2,699 9.8 -21.4°
